This is the latest recevied weather packets stored in our database for station/object ZS1BR-13. If no packets are shown the sender has not sent any weather packets the latest 10 day(s).
| Time | Temp. | Humidity | Pressure | Rain* | Wind** | Luminosity | Snow |
|---|---|---|---|---|---|---|---|
| 1777814762 | 22.78° C | 70% | 1013.1 hPa | 0 mm | - | - | - |
| 1777814155 | 22.78° C | 70% | 1013.1 hPa | 0 mm | - | - | - |
| 1777813549 | 23.33° C | 69% | 1013.1 hPa | 0 mm | - | - | - |
| 1777812942 | 22.78° C | 71% | 1013.1 hPa | 0 mm | - | - | - |
| 1777812335 | 22.78° C | 71% | 1013.2 hPa | 0 mm | - | - | - |
| 1777811726 | 22.78° C | 72% | 1013.2 hPa | 0 mm | - | - | - |
| 1777811119 | 22.22° C | 73% | 1013.2 hPa | 0 mm | - | - | - |
| 1777810573 | 22.22° C | 73% | 1013.3 hPa | 0 mm | - | - | - |
| 1777809966 | 22.22° C | 74% | 1013.5 hPa | 0 mm | - | - | - |
| 1777809359 | 22.22° C | 74% | 1013.7 hPa | 0 mm | - | - | - |
| 1777808752 | 21.67° C | 75% | 1013.8 hPa | 0 mm | - | - | - |
| 1777808145 | 21.67° C | 76% | 1014 hPa | 0 mm | - | - | - |
| 1777807537 | 21.11° C | 78% | 1014 hPa | 0 mm | - | - | - |
| 1777806930 | 21.11° C | 80% | 1014.3 hPa | 0 mm | - | - | - |
| 1777806323 | 20.56° C | 80% | 1014.4 hPa | 0 mm | - | - | - |
| 1777805776 | 20.56° C | 81% | 1014.5 hPa | 0 mm | - | - | - |
| 1777805170 | 20.56° C | 83% | 1014.6 hPa | 0 mm | - | - | - |
| 1777804562 | 20° C | 84% | 1014.8 hPa | 0 mm | - | - | - |
| 1777803955 | 20° C | 86% | 1015 hPa | 0 mm | - | - | - |
| 1777803348 | 19.44° C | 87% | 1015 hPa | 0 mm | - | - | - |
| 1777802742 | 19.44° C | 88% | 1015 hPa | 0 mm | - | - | - |
| 1777802134 | 19.44° C | 88% | 1015 hPa | 0 mm | - | - | - |
| 1777801527 | 18.89° C | 89% | 1015.2 hPa | 0 mm | - | - | - |
| 1777800920 | 18.89° C | 89% | 1015.1 hPa | 0 mm | - | - | - |
| 1777800373 | 18.89° C | 89% | 1015.1 hPa | 0 mm | - | - | - |
* Rain latest hour (hover to see other rain measurements)
** Current wind speed in m/s (hover to see current wind gust speed)